Skip Page Navigation
NASA JPL Caltech
NASA Logo - Jet Propulsion Laboratory + View the NASA Portal
+ Center for Near-Earth Object Studies
JPL Home Earth Solar System Stars & Galaxies Technology
JPL Solar System Dynamics
BODIES ORBITS EPHEMERIDES TOOLS PHYSICAL DATA DISCOVERY FAQ SITE MAP
IMPORTANT: The SSD Announcement email list is now available. Major changes are coming in the near future, including possible hostname and/or URL changes. To be notified of such changes, subscribe to this email list.

Please visit this page for more details.


JPL Small-Body Database Browser
Search: [ help ]  
437996 (2003 UE102)
Classification: Main-belt Asteroid          SPK-ID: 2437996
Ephemeris | Orbit Diagram | Orbital Elements | Mission Design | Physical Parameters | Discovery Circumstances ]

[ show orbit diagram ]
Orbital Elements at Epoch 2458600.5 (2019-Apr-27.0) TDB
Reference: JPL 12 (heliocentric ecliptic J2000)
 Element Value Uncertainty (1-sigma)   Units 
e .2867224491514886 3.952e-07  
a 2.604283435203577 1.593e-07 au
q 1.857576910377356 1.138e-06 au
i 6.545449635557305 9.3338e-06 deg
node 118.1639056629892 9.2564e-05 deg
peri 217.0349818515567 0.00012774 deg
M 281.2715809226486 0.00013417 deg
tp 2458936.206561338164
(2020-Mar-27.70656134)
0.00060253 TDB
period 1535.079244548256
4.20
0.00014085
3.856e-07
d
yr
n .2345155804031087 2.1517e-08 deg/d
Q 3.350989960029799 2.0497e-07 au
  Orbit Determination Parameters
   # obs. used (total)      101  
   data-arc span      5705 days (15.62 yr)  
   first obs. used      2003-10-20  
   last obs. used      2019-06-03  
   planetary ephem.      DE431  
   SB-pert. ephem.      SB431-N16  
   condition code      1  
   norm. resid. RMS      .57621  
   source      ORB  
   producer      Otto Matic  
   solution date      2019-Sep-24 07:38:07  

Additional Information
 Earth MOID = .851469 au 
 Jupiter MOID = 2.04213 au 
 T_jup = 3.345 
[ show covariance matrix ]

Ephemeris | Orbit Diagram | Orbital Elements | Mission Design | Physical Parameters | Discovery Circumstances ]

Physical Parameter Table
Parameter Symbol Value Units Sigma Reference Notes
absolute magnitude H 17.5   n/a MPO346159  

437996 (2003 UE102)          Discovered 2003-Oct-20 by LINEAR at Socorro
Reference: Last Updated: 2015-07-06

Alternate Designations
 2003 UE102 = 2007 RD28 
Ephemeris | Orbit Diagram | Orbital Elements | Mission Design | Physical Parameters | Discovery Circumstances ]
ABOUT SSD CREDITS/AWARDS PRIVACY/COPYRIGHT GLOSSARY LINKS
FirstGov 2019-Dec-15 08:55 UT
(server date/time)  
NASA Home Page
Site Manager:   Ryan S. Park
Webmaster  Alan B. Chamberlin